Location: Kershaw
(34.5481°N, 80.5823°W)
Time: 05:05:43
(UTC+00:00)

Envisat - Visible Passes

Search period start: 16 August 2022 00:00
Search period end: 26 August 2022 00:00
Orbit: 763 x 765 km, 98.2° (Epoch: 15 August)

Date Brightness Start Highest point End Pass type
(mag) Time Alt. Az. Time Alt. Az. Time Alt. Az.
16 Aug 5.0 08:55:58 10° NE 09:00:10 26° E 09:04:20 10° SSE visible
17 Aug 6.0 08:22:31 10° E 08:22:54 10° E 08:23:18 10° E visible
17 Aug 3.0 09:57:16 10° N 10:02:20 72° WNW 10:07:23 10° SSW visible
18 Aug 4.0 09:20:30 10° NNE 09:25:24 47° E 09:30:16 10° S visible
19 Aug 5.4 08:44:37 10° NE 08:48:16 20° E 08:51:54 10° SE visible
20 Aug 3.0 09:45:26 10° NNE 09:50:33 87° ESE 09:55:37 10° SSW visible
21 Aug 4.5 09:08:53 10° NNE 09:13:32 36° E 09:18:09 10° SSE visible
22 Aug 5.6 08:33:31 10° ENE 08:36:21 15° E 08:39:11 10° SE visible
22 Aug 3.2 10:10:41 10° N 10:15:36 51° WNW 10:20:30 10° SSW visible
23 Aug 3.4 09:33:40 10° NNE 09:38:44 66° ESE 09:43:45 10° S visible
24 Aug 4.9 08:57:22 10° NE 09:01:40 27° E 09:05:56 10° SSE visible
25 Aug 5.9 08:23:07 10° ENE 08:24:26 11° E 08:25:44 10° ESE visible
25 Aug 3.0 09:58:47 10° N 10:03:49 68° WNW 10:08:51 10° SSW visible
